Content
SEND FEEDBACK

Daily
Averages
Monthly
Summary
United States of America

HYATTVILLE, WYOMING


Home > North America > United States > Wyoming
Elevation: 4874 feet     Latitude: 44 04N     Longitude: 107 25W

WEATHER
 
SELECT A DAY
Number of Records: 16,351;   Date Range: 9/1/12 - 7/29/14
 
SHARE

PRINT THIS DATA

[ ← Previous Day ]
WEATHER ALMANAC - JANUARY 31, 2013
[ Next Day → ]
[ °C ]   °F
Weather ElementAverageHighLow
Temperature20.6 °F28 °F (12:53 pm)10 °F (9:53 pm)
Dewpoint17.8 °F21.2 °F (2:12 am)8.1 °F (9:53 pm)
Humidity89.6 %100 % (2:12 am)75 % (12:53 pm)
Barometer30.13 in30.29 in (10:53 am)29.96 in (1:19 am)
Wind Speed2.5 mph8.1 mph (1:53 pm)
Wind Gust86.3 mph (8:41 pm)
Weather ElementAverage
Visibility5.8 mi
Wind DirectionENE (80.2 °)

Weather ElementTotal
Precipitation0.06 in
Heating Degree Days46 (Base 65)
Averaged from 43 records on January 31, 2013
WEATHER CONDITIONS BREAKOUT
WIND DIRECTION BREAKOUT
WEATHER BY HOUR - JANUARY 31, 2013
[ °C ]   °F
Local TimeTemperatureDewpointHumidityBarometerVisibilityWind DirectionWind SpeedGust SpeedPrecipitationEventsConditions
1:04 AM21.2 °F19.4 °F93 %29.97 in2.0 miCalm0.00 inSnowLight Snow
1:19 AM21.2 °F19.4 °F93 %29.96 in1.8 miCalm0.00 inSnowLight Snow
1:33 AM21.2 °F19.4 °F93 %29.97 in2.0 miCalm0.00 inSnowLight Snow
1:46 AM21.2 °F19.4 °F93 %29.96 in4.0 miSSW (200°)3.5 mph0.00 inSnowLight Snow
1:50 AM21.2 °F19.4 °F93 %29.97 in2.5 miCalm0.00 inSnowLight Snow
1:53 AM21.9 °F19.9 °F92 %30.12 in1.5 miCalm0.01 inSnowLight Snow
2:12 AM21.2 °F21.2 °F100 %29.97 in0.8 miCalm0.00 inSnowLight Snow
2:24 AM21.2 °F19.4 °F93 %29.97 in1.2 miCalm0.01 inSnowLight Snow
2:48 AM21.2 °F19.4 °F93 %29.98 in3.0 miCalm0.01 inSnowLight Snow
2:53 AM21.9 °F19.9 °F92 %30.13 in4.0 miCalm0.01 inSnowLight Snow
3:10 AM21.2 °F19.4 °F93 %29.98 in2.5 miCalm0.00 inSnowLight Snow
3:23 AM21.2 °F21.2 °F100 %29.98 in1.5 miCalm0.00 inSnowLight Snow
3:51 AM21.2 °F19.4 °F93 %29.98 in2.0 miCalm0.01 inSnowLight Snow
3:53 AM21.9 °F19.9 °F92 %30.13 in1.8 miCalm0.01 inSnowLight Snow
4:05 AM21.2 °F21.2 °F100 %29.98 in2.5 miCalm0.00 inSnowLight Snow
4:27 AM21.2 °F19.4 °F93 %29.98 in4.0 miSW (220°)3.5 mph0.00 inSnowLight Snow
4:53 AM19.0 °F17.1 °F92 %30.15 in6.0 miCalm0.00 inOvercast
5:15 AM19.4 °F17.6 °F93 %30.01 in6.0 miCalmOvercast
5:53 AM19.0 °F16.0 °F88 %30.20 in8.0 miWSW (240°)3.5 mphOvercast
6:53 AM19.0 °F17.1 °F92 %30.22 in4.0 miSSW (210°)3.5 mph0.00 inSnowLight Snow
7:01 AM19.4 °F17.6 °F93 %30.06 in4.0 miSouth (190°)4.6 mph0.00 inSnowLight Snow
7:53 AM19.9 °F17.1 °F89 %30.25 in3.0 miCalm0.00 inSnowLight Snow
8:03 AM19.4 °F17.6 °F93 %30.10 in2.5 miSouth (170°)3.5 mph0.00 inSnowLight Snow
8:12 AM19.4 °F17.6 °F93 %30.10 in3.0 miSouth (180°)5.8 mph0.00 inSnowLight Snow
8:53 AM21.0 °F19.0 °F92 %30.27 in4.0 miSouth (190°)3.5 mph0.00 inOvercast
9:53 AM23.0 °F19.9 °F88 %30.28 in5.0 miSouth (180°)3.5 mphOvercast
10:12 AM24.8 °F19.4 °F80 %30.13 in6.0 miSouth (180°)5.8 mphOvercast
10:53 AM25.0 °F21.0 °F85 %30.29 in9.0 miSE (140°)5.8 mphOvercast
11:29 AM26.6 °F21.2 °F80 %30.14 in10.0 miSE (130°)3.5 mphOvercast
11:53 AM26.1 °F21.0 °F81 %30.27 in10.0 miSE (130°)5.8 mphOvercast
12:53 PM28.0 °F21.0 °F75 %30.25 in10.0 miEast (100°)5.8 mphScattered Clouds
1:53 PM28.0 °F21.0 °F75 %30.23 in10.0 miEast (100°)8.1 mphScattered Clouds
2:53 PM28.0 °F21.0 °F75 %30.22 in10.0 miEast (90°)6.9 mphClear
3:53 PM27.0 °F19.9 °F75 %30.22 in10.0 miEast (80°)4.6 mphClear
4:53 PM23.0 °F19.0 °F85 %30.23 in10.0 miCalmClear
5:53 PM14.0 °F10.9 °F88 %30.27 in10.0 miCalmClear
6:53 PM17.1 °F14.0 °F88 %30.26 in10.0 miSSE (150°)3.5 mphClear
7:53 PM15.1 °F12.9 °F91 %30.25 in10.0 miESE (120°)4.6 mphClear
8:41 PM12.2 °F10.4 °F92 %30.06 in10.0 miVariable5.8 mph86.3 mphSqualls
8:53 PM15.1 °F12.9 °F91 %30.25 in10.0 miWSW (250°)5.8 mph17.3 mphClear
9:53 PM10.0 °F8.1 °F92 %30.25 in10.0 miCalmPartly Cloudy
10:53 PM12.9 °F10.9 °F92 %30.23 in10.0 miCalmOvercast
11:53 PM12.0 °F9.0 °F88 %30.22 in10.0 miSSW (200°)6.9 mphMostly Cloudy
Hourly data recorded from KWRL, located miles away from Hyattville, Wyoming







STORIES FROM OUR PARTNERS